EW6183 Weather Reports


time (UTC)temp
C
wind
direction
speed
KPH
gust
KPH
rain 1hr
cm
rain 24hr
cm
rain mn
cm
humidity
%
barometer
mb
20260505093010 12 159 0.0 3.2 0.00 0.00 0.00 81 1011.6
20260505091513 12 213 0.0 3.2 0.00 0.00 0.00 81 1011.8
20260505090008 13 221 0.0 3.2 0.00 0.00 0.00 81 1011.9
20260505084508 13 286 1.6 6.4 0.00 0.00 0.00 81 1011.8
20260505083007 13 192 0.0 3.2 0.00 0.00 0.00 81 1011.8
20260505081506 12 155 0.0 4.8 0.00 0.00 0.00 81 1011.7
20260505080005 12 246 0.0 4.8 0.00 0.00 0.00 81 1011.7
20260505074505 12 167 1.6 8.0 0.00 0.00 0.00 81 1011.7
20260505073019 12 226 0.0 3.2 0.00 0.00 0.00 81 1011.6
20260505071504 12 226 0.0 4.8 0.00 0.00 0.00 80 1011.6
20260505070005 12 219 0.0 3.2 0.00 0.00 0.00 80 1011.5
20260505064502 13 128 0.0 3.2 0.00 0.00 0.00 79 1011.5
20260505063002 13 136 0.0 8.0 0.00 0.00 0.00 80 1011.5
20260505061600 12 194 0.0 4.8 0.00 0.00 0.00 80 1011.6
20260505060057 12 180 0.0 11.3 0.00 0.00 0.00 80 1011.7
20260505054557 12 176 0.0 4.8 0.00 0.00 0.00 79 1011.7
20260505053056 12 169 0.0 6.4 0.00 0.00 0.00 79 1011.8
20260505051555 12 126 0.0 4.8 0.00 0.00 0.00 78 1011.8
20260505041549 12 193 0.0 3.2 0.00 0.00 0.00 76 1012.1
20260505040047 12 172 1.6 4.8 0.00 0.00 0.00 76 1012.1
20260505034549 12 91 0.0 4.8 0.00 0.00 0.00 76 1012.1
20260505033045 12 160 0.0 4.8 0.00 0.00 0.00 76 1012.2
20260505031549 12 151 0.0 9.7 0.00 0.00 0.00 75 1012.3
20260505030045 12 182 0.0 1.6 0.00 0.00 0.00 75 1012.4
20260505024543 12 182 0.0 1.6 0.00 0.00 0.00 74 1012.4
20260505023049 13 182 0.0 3.2 0.00 0.00 0.00 73 1012.5
20260505021544 13 134 0.0 6.4 0.00 0.00 0.00 72 1012.6
20260505020043 13 159 0.0 3.2 0.00 0.00 0.00 71 1012.6
20260505014542 13 123 0.0 3.2 0.00 0.00 0.00 69 1012.6
20260505013040 14 182 0.0 6.4 0.00 0.00 0.00 67 1012.5
20260505011543 15 148 0.0 6.4 0.00 0.00 0.00 65 1012.3
20260505004539 15 188 1.6 4.8 0.00 0.00 0.00 59 1011.9
20260505003043 16 163 1.6 8.0 0.00 0.00 0.00 58 1011.8
20260505001537 16 165 0.0 3.2 0.00 0.00 0.00 56 1011.7
20260505000044 17 40 0.0 6.4 0.00 0.00 0.00 54 1011.3
20260504234536 18 163 0.0 11.3 0.00 0.00 0.00 51 1011.2
20260504233036 18 236 0.0 9.7 0.00 0.00 0.00 49 1011.1
20260504231538 19 202 3.2 11.3 0.00 0.00 0.00 49 1010.9
20260504230041 20 181 4.8 16.1 0.00 0.00 0.00 43 1010.8
20260504224535 21 238 3.2 12.9 0.00 0.00 0.00 36 1010.7
20260504223033 21 336 3.2 11.3 0.00 0.00 0.00 36 1010.5
20260504221545 21 151 3.2 9.7 0.00 0.00 0.00 35 1010.5
20260504220034 22 219 1.6 11.3 0.00 0.00 0.00 33 1010.7
20260504214531 22 301 4.8 8.0 0.00 0.00 0.00 32 1010.6
20260504213042 22 348 4.8 9.7 0.00 0.00 0.00 32 1010.6
20260504211533 23 181 3.2 11.3 0.00 0.00 0.00 31 1010.8
20260504210027 23 227 3.2 17.7 0.00 0.00 0.00 32 1010.7
20260504204529 23 227 1.6 11.3 0.00 0.00 0.00 32 1010.7
20260504203035 23 191 3.2 17.7 0.00 0.00 0.00 32 1010.6
20260504201525 23 165 3.2 11.3 0.00 0.00 0.00 31 1010.7
20260504200021 23 250 3.2 12.9 0.00 0.00 0.00 31 1011.0
20260504194528 22 332 3.2 19.3 0.00 0.00 0.00 34 1011.1
20260504193020 23 213 3.2 12.9 0.00 0.00 0.00 34 1011.3
20260504191529 23 157 1.6 14.5 0.00 0.00 0.00 33 1011.5
20260504190014 22 290 6.4 22.5 0.00 0.00 0.00 33 1012.0
20260504184518 22 147 6.4 14.5 0.00 0.00 0.00 32 1012.0
20260504183010 22 275 4.8 12.9 0.00 0.00 0.00 33 1012.1
20260504181513 22 250 6.4 14.5 0.00 0.00 0.00 36 1012.5
20260504180007 22 240 6.4 19.3 0.00 0.00 0.00 34 1012.7
20260504174503 21 285 6.4 16.1 0.00 0.00 0.00 35 1012.9
20260504173002 21 208 6.4 16.1 0.00 0.00 0.00 36 1013.0
20260504171601 21 205 6.4 30.6 0.00 0.00 0.00 36 1013.1